[[{"header":{"parameterUnit":"m.s-1","parameterCategory":1,"la1":30.2991,"la2":30.254,"lo1":-89.0895,"lo2":-89.0444,"dy":0.0017,"dx":0.0017,"nx":28,"ny":28,"refTime":"2023-11-15T09:00:00:Z","depth":0,"parameterNumber":2,"parameterNumberName":"U-component_of_WINDS"},"data":[0,0,0,0,0,0,0,0,0,0,0,0,0,0,0,0,0,0,0,0,0,0,0,0,0,0,0,0,0,0,0,0,0,0,0,0,0,0,0,0,0,0,0,0,0,0,0,0,0,0,0,0,0,0,0,0,0,0,-3.8086,-3.8087,0,-3.8177,-3.8178,-3.8179,-3.8101,-3.8098,-3.8094,-3.8091,-3.8188,-3.8194,-3.8199,0,0,0,0,0,0,0,0,0,0,0,0,0,-3.785,-3.7854,-3.8086,-3.8088,-3.8089,-3.8177,-3.8178,-3.8179,-3.8101,-3.8098,-3.8094,-3.809,-3.8187,-3.8193,-3.82,0,0,0,0,0,0,0,0,0,0,0,0,0,-3.7948,-3.7856,-3.8086,-3.806,-3.8059,-3.8177,-3.8178,-3.818,-3.8102,-3.8097,-3.8093,-3.8088,-3.8184,-3.8193,-3.8201,-3.835,0,0,-3.8227,-3.823,0,0,0,0,0,0,0,0,-3.7942,-3.7957,-3.8063,-3.8062,-3.8061,-3.8123,-3.813,-3.8237,-3.8104,-3.8086,-3.8091,-3.8086,-3.8171,-3.818,-3.8208,-3.8355,-3.8359,-3.8227,-3.8232,-3.8236,-3.8238,0,0,0,0,0,0,0,-3.7936,-3.7952,-3.8122,-3.8065,-3.8063,-3.8045,-3.8054,-3.815,-3.8155,-3.8087,-3.8082,-3.8093,-3.8169,-3.82,-3.821,-3.836,-3.8227,-3.8235,-3.824,-3.8243,-3.8636,-3.8641,0,0,0,0,0,0,-3.7931,-3.7947,-3.8119,-3.8125,-3.7988,-3.8054,-3.8063,-3.8108,-3.8153,-3.8156,-3.8097,-3.8089,-3.8188,-3.82,-3.8213,-3.8392,-3.8236,-3.8244,-3.8249,-3.8631,-3.8637,-3.8643,0,0,0,0,0,0,-3.7926,-3.7947,-3.8116,-3.8035,-3.8055,-3.8063,-3.8114,-3.8112,-3.8143,-3.8161,-3.8162,-3.8128,-3.8185,-3.8201,-3.8317,-3.8394,-3.8248,-3.8255,-3.8625,-3.8633,-3.864,-3.8751,0,0,0,0,0,0,-3.792,-3.7946,-3.8002,-3.8036,-3.8059,-3.8218,-3.8118,-3.8117,-3.8157,-3.8147,-3.819,-3.8192,-3.8182,-3.8305,-3.8325,-3.8403,-3.8262,-3.8618,-3.8628,-3.8638,-3.8741,-3.8762,-3.878,0,0,0,0,0,-3.7912,-3.803,-3.8005,-3.8026,-3.8129,-3.8222,-3.8235,-3.822,-3.8163,-3.8221,-3.8232,-3.8191,-3.8382,-3.8317,-3.834,-3.8421,-3.8613,-3.8625,-3.8637,-3.8732,-3.8758,-3.878,0,0,0,0,0,0,-3.8005,-3.8034,-3.8007,-3.8139,-3.8179,-3.8209,-3.828,-3.8248,-3.8305,-3.8294,-3.8274,-3.8284,-3.8407,-3.8425,-3.8352,-3.8569,-3.8488,-3.8506,-3.8553,-3.8578,-3.8597,-3.8591,-3.8269,0,0,0,0,0,-3.8041,-3.8113,-3.8134,-3.825,-3.8271,-3.8272,-3.8312,-3.8297,-3.8337,-3.8354,-3.8374,-3.8417,-3.8486,-3.8533,-3.8598,-3.8742,-3.8752,-3.881,-3.883,-3.8846,-3.8862,-3.8941,-3.8968,-3.8683,-3.8683,-3.8683,0,0,-3.8117,-3.8141,-3.8188,-3.8269,-3.8298,-3.8374,-3.8287,-3.8371,-3.8428,-3.8367,-3.8478,-3.8495,-3.854,-3.8672,-3.8731,-3.8691,-3.8942,-3.8861,-3.8874,-3.8881,-3.8957,-3.8984,-3.9008,-3.8691,-3.869,-3.8689,0,0,-3.8293,-3.8318,-3.8418,-3.8448,-3.8492,-3.8492,-3.8516,-3.8551,-3.856,-3.867,-3.8627,-3.8695,-3.8814,-3.8849,-3.8883,-3.9073,-3.9038,-3.9095,-3.92,-3.9278,-3.93,-3.932,-3.939,-3.9415,-3.911,-3.9111,-3.9111,0,-3.8382,-3.8494,-3.8473,-3.8561,-3.8599,-3.8546,-3.8647,-3.8678,-3.8742,-3.877,-3.8724,-3.8874,-3.8901,-3.9041,-3.9088,-3.9116,-3.9144,-3.9091,-3.9298,-3.9318,-3.9336,-3.9403,-3.9429,-3.9117,-3.9117,-3.9116,-3.9115,0,-3.8602,-3.868,-3.8755,-3.8817,-3.8863,-3.8958,-3.8953,-3.9002,-3.8983,-3.8989,-3.9103,-3.9133,-3.9204,-3.9236,-3.9218,-3.9374,-3.9348,-3.9301,-3.922,-3.9371,-3.9433,-3.9458,-3.9127,-3.9125,-3.9123,-3.9121,0,0,-3.8841,-3.889,-3.8919,-3.8947,-3.8991,-3.9053,-3.9145,-3.9213,-3.9257,-3.9302,-3.9381,-3.9484,-3.944,-3.9478,-3.9464,-3.9532,-3.9684,-3.9477,-3.9478,-3.9516,-3.986,-3.9897,-3.9926,-3.966,-3.9664,-3.9668,-3.9857,0,-3.9021,-3.9181,-3.9165,-3.9318,-3.9391,-3.9342,-3.9422,-3.946,-3.9468,-3.9532,-3.9541,-3.9615,-3.9551,-3.9574,-3.9639,-3.9652,-3.9753,-3.9638,-3.9735,-3.9739,-3.9727,-3.9959,-3.9998,-4.0174,-3.9881,-3.9885,-3.9888,0,-3.9253,-3.9306,-3.9466,-3.95,-3.9531,-3.9603,-3.9665,-3.9727,-3.9768,-3.9769,-3.9812,-3.9786,-3.9881,-3.9797,-3.9928,-3.985,-3.9889,-3.9901,-3.9908,-3.9918,-3.9824,-3.9977,-4.023,-4.0257,-3.9925,-3.9922,-3.992,0,-3.9414,-3.9526,-3.9636,-3.9661,-3.9704,-3.9757,-3.9777,-3.9814,-3.9856,-3.991,-3.9938,-4.0003,-4.004,-4.0091,-4.0085,-4.0023,-4.022,-4.0134,-4.0225,-4.0226,-4.027,-4.0268,-4.0535,-4.0292,-4.0291,-4.0291,-4.029,0,-3.9618,-3.9719,-3.9709,-3.9777,-3.9889,-3.987,-3.9981,-3.9995,-4.0028,-4.01,-4.0061,-4.0129,-4.0115,-4.0183,-4.0178,-4.0289,-4.0305,-4.031,-4.0309,-4.0315,-4.0315,-4.0342,-4.033,-4.0298,-4.0296,-4.0295,-4.0294,0,-3.9818,-3.9816,-3.9933,-3.9963,-3.9973,-4.0055,-4.0081,-4.0147,-4.015,-4.0241,-4.0262,-4.0269,-4.0348,-4.0345,-4.0435,-4.0431,-4.0569,-4.0551,-4.0555,-4.0552,-4.0644,-4.0636,-4.0939,-4.0979,-4.0708,-4.0711,-4.0713,0,-3.995,-4.0026,-4.0064,-4.0108,-4.0132,-4.0204,-4.0247,-4.0231,-4.0278,-4.0331,-4.0391,-4.0465,-4.0524,-4.0652,-4.0667,-4.0735,-4.0721,-4.0822,-4.0731,-4.0736,-4.0725,-4.0722,-4.073,-4.0841,-4.0844,-4.0846,-4.0848,0,-4.0184,-4.0179,-4.0241,-4.0304,-4.0356,-4.0405,-4.045,-4.0489,-4.0479,-4.0533,-4.0612,-4.0658,-4.0749,-4.0824,-4.089,-4.0913,-4.0881,-4.0877,-4.0902,-4.0911,-4.091,-4.0914,-4.0606,-4.087,-4.0868,-4.0867,-4.0865,-4.0864,-4.0355,-4.0421,-4.0458,-4.053,-4.0562,-4.0605,-4.0668,-4.0679,-4.0745,-4.0817,-4.0804,-4.0893,-4.0934,-4.1019,-4.1048,-4.1118,-4.1083,-4.1119,-4.1128,-4.1138,-4.1149,-4.0897,-4.113,-4.1129,-4.1129,-4.1128,-4.1128,0,-4.0589,-4.0611,-4.0676,-4.074,-4.0797,-4.0759,-4.0807,-4.0857,-4.0936,-4.0976,-4.1035,-4.1127,-4.12,-4.122,-4.129,-4.1343,-4.1331,-4.1363,-4.136,-4.1366,-4.1176,-4.1148,-4.1372,-4.1372,-4.1372,-4.1372,-4.1372,-4.1372,-4.0718,-4.0827,-4.0827,-4.0953,-4.0974,-4.106,-4.1091,-4.1131,-4.1163,-4.1267,-4.1327,-4.1339,-4.1372,-4.1445,-4.1511,-4.1515,-4.1544,-4.1583,-4.1581,-4.1404,-4.1379,-4.1356,-4.133,-4.1589,-4.1589,-4.1766,-4.1767,-4.1769]},{"header":{"parameterUnit":"m.s-1","parameterCategory":1,"la1":30.2991,"la2":30.254,"lo1":-89.0895,"lo2":-89.0444,"dy":0.0017,"dx":0.0017,"nx":28,"ny":28,"refTime":"2023-11-15T09:00:00:Z","depth":0,"parameterNumber":3,"parameterNumberName":"V-component_of_WINDS"},"data":[0,0,0,0,0,0,0,0,0,0,0,0,0,0,0,0,0,0,0,0,0,0,0,0,0,0,0,0,0,0,0,0,0,0,0,0,0,0,0,0,0,0,0,0,0,0,0,0,0,0,0,0,0,0,0,0,0,0,-3.9438,-3.9438,0,-3.9435,-3.9435,-3.9435,-3.9357,-3.9355,-3.9353,-3.9351,-3.9348,-3.9349,-3.9351,0,0,0,0,0,0,0,0,0,0,0,0,0,-3.9376,-3.9377,-3.9438,-3.9438,-3.9438,-3.9435,-3.9435,-3.9435,-3.9357,-3.9355,-3.9352,-3.935,-3.9347,-3.9349,-3.9351,0,0,0,0,0,0,0,0,0,0,0,0,0,-3.9391,-3.9378,-3.9438,-3.9399,-3.9395,-3.9435,-3.9435,-3.9435,-3.9358,-3.9355,-3.9352,-3.9349,-3.9346,-3.9349,-3.9352,-3.9429,0,0,-3.936,-3.9361,0,0,0,0,0,0,0,0,-3.939,-3.9393,-3.9405,-3.9402,-3.9398,-3.9393,-3.9412,-3.9433,-3.9358,-3.9372,-3.9351,-3.9347,-3.9365,-3.9366,-3.9372,-3.9429,-3.9429,-3.936,-3.9362,-3.9363,-3.9364,0,0,0,0,0,0,0,-3.9389,-3.9393,-3.9437,-3.9405,-3.9401,-3.9381,-3.938,-3.9415,-3.9386,-3.9371,-3.9365,-3.9366,-3.9363,-3.937,-3.9372,-3.9429,-3.936,-3.9362,-3.9364,-3.9365,-3.9547,-3.955,0,0,0,0,0,0,-3.9394,-3.9393,-3.9437,-3.9437,-3.9386,-3.9385,-3.9383,-3.9398,-3.9385,-3.938,-3.9368,-3.9362,-3.9367,-3.9369,-3.9371,-3.946,-3.9363,-3.9365,-3.9367,-3.9544,-3.9548,-3.9551,0,0,0,0,0,0,-3.9393,-3.9398,-3.9437,-3.9413,-3.9417,-3.9389,-3.9406,-3.9399,-3.9406,-3.9383,-3.9377,-3.9381,-3.9364,-3.9367,-3.9415,-3.9459,-3.9367,-3.9369,-3.954,-3.9545,-3.955,-3.9639,0,0,0,0,0,0,-3.9391,-3.9398,-3.9428,-3.9414,-3.9418,-3.9482,-3.9408,-3.9401,-3.9411,-3.9403,-3.9394,-3.9389,-3.9362,-3.9411,-3.9418,-3.9461,-3.9371,-3.9536,-3.9542,-3.9548,-3.9632,-3.9647,-3.9659,0,0,0,0,0,-3.9389,-3.9453,-3.943,-3.9435,-3.9454,-3.9484,-3.9486,-3.9454,-3.9415,-3.9444,-3.9429,-3.939,-3.9453,-3.9417,-3.9423,-3.9468,-3.9533,-3.9541,-3.9548,-3.9626,-3.9644,-3.9659,0,0,0,0,0,0,-3.9473,-3.9451,-3.9424,-3.9486,-3.9488,-3.9471,-3.9507,-3.9474,-3.9486,-3.9478,-3.9437,-3.9436,-3.949,-3.9483,-3.9443,-3.9542,-3.9486,-3.9495,-3.9544,-3.956,-3.9573,-3.9574,-3.9373,0,0,0,0,0,-3.9499,-3.9525,-3.9504,-3.9561,-3.9563,-3.9535,-3.9547,-3.9521,-3.9521,-3.9521,-3.951,-3.9511,-3.9531,-3.9545,-3.9563,-3.9631,-3.9627,-3.9665,-3.9678,-3.9689,-3.9697,-3.9733,-3.9749,-3.9575,-3.9575,-3.9575,0,0,-3.9552,-3.9543,-3.9562,-3.9577,-3.9575,-3.9603,-3.9536,-3.9568,-3.9588,-3.9526,-3.957,-3.9562,-3.956,-3.9619,-3.9644,-3.9615,-3.9745,-3.9698,-3.9707,-3.971,-3.9742,-3.9758,-3.9773,-3.958,-3.9579,-3.9578,0,0,-3.9664,-3.966,-3.9706,-3.9705,-3.9703,-3.9684,-3.9695,-3.9683,-3.9675,-3.9719,-3.9672,-3.9695,-3.9731,-3.9732,-3.9737,-3.9848,-3.9812,-3.9854,-3.9924,-3.9959,-3.9972,-3.9984,-4.0023,-4.0038,-3.9862,-3.9863,-3.9863,0,-3.973,-3.977,-3.9734,-3.9769,-3.9777,-3.9722,-3.9768,-3.9769,-3.9773,-3.9779,-3.9747,-3.979,-3.9786,-3.9843,-3.987,-3.9876,-3.9887,-3.9855,-3.9973,-3.9985,-3.9995,-4.0032,-4.0047,-3.9868,-3.9867,-3.9867,-3.9866,0,-3.9852,-3.9881,-3.9918,-3.9923,-3.9935,-3.9976,-3.9945,-3.9961,-3.9935,-3.9919,-3.9964,-3.9956,-3.997,-3.9982,-3.9957,-4.0035,-4.0018,-3.998,-3.9924,-4.0018,-4.0052,-4.0066,-3.9875,-3.9873,-3.9872,-3.9871,0,0,-4.0018,-4.0001,-4.0015,-4.0016,-4.0009,-4.003,-4.0068,-4.0082,-4.0096,-4.01,-4.0131,-4.0162,-4.0127,-4.0133,-4.0107,-4.0137,-4.0225,-4.0096,-4.0095,-4.012,-4.0311,-4.0339,-4.0356,-4.0201,-4.0204,-4.0206,-4.0311,0,-4.0125,-4.0189,-4.0157,-4.0224,-4.0249,-4.0197,-4.023,-4.0229,-4.0215,-4.0234,-4.0218,-4.0241,-4.0193,-4.0196,-4.0224,-4.0209,-4.0263,-4.02,-4.0229,-4.023,-4.0231,-4.0374,-4.0404,-4.0504,-4.0324,-4.0326,-4.0328,0,-4.0259,-4.0268,-4.0339,-4.0326,-4.0335,-4.0365,-4.0375,-4.0394,-4.0392,-4.0379,-4.0386,-4.0352,-4.0388,-4.0332,-4.038,-4.0339,-4.0348,-4.0343,-4.0346,-4.0347,-4.0285,-4.0379,-4.0535,-4.0551,-4.0349,-4.0347,-4.0345,0,-4.0372,-4.0402,-4.0448,-4.045,-4.0437,-4.0459,-4.0454,-4.0449,-4.0459,-4.0467,-4.0473,-4.0486,-4.0493,-4.0504,-4.0475,-4.0436,-4.0527,-4.0468,-4.0518,-4.0519,-4.0539,-4.0539,-4.0699,-4.0546,-4.0546,-4.0545,-4.0545,0,-4.0495,-4.054,-4.0498,-4.0526,-4.0575,-4.0537,-4.0586,-4.0576,-4.0571,-4.0596,-4.0551,-4.0576,-4.0536,-4.0556,-4.0534,-4.0577,-4.0581,-4.0572,-4.0565,-4.0576,-4.0577,-4.0582,-4.0574,-4.0549,-4.0548,-4.0548,-4.0547,0,-4.063,-4.0604,-4.065,-4.0633,-4.063,-4.0666,-4.0651,-4.0676,-4.0659,-4.0691,-4.0696,-4.0669,-4.0691,-4.0663,-4.0682,-4.0666,-4.0726,-4.0709,-4.0727,-4.0722,-4.0773,-4.0768,-4.0942,-4.0963,-4.0796,-4.0798,-4.0799,0,-4.0711,-4.0744,-4.073,-4.0744,-4.0741,-4.0764,-4.0773,-4.0737,-4.0749,-4.0749,-4.0774,-4.0792,-4.0804,-4.0841,-4.0823,-4.0837,-4.082,-4.088,-4.0822,-4.0831,-4.0821,-4.0819,-4.0822,-4.0892,-4.0894,-4.0895,-4.0897,0,-4.0857,-4.0841,-4.0857,-4.0868,-4.0881,-4.0888,-4.0892,-4.0906,-4.0868,-4.0883,-4.0905,-4.0914,-4.0933,-4.0951,-4.096,-4.0955,-4.092,-4.0915,-4.0927,-4.0938,-4.0947,-4.0943,-4.0759,-4.0911,-4.091,-4.0909,-4.0908,-4.0907,-4.0966,-4.0993,-4.0987,-4.1006,-4.1005,-4.1009,-4.1032,-4.1017,-4.1034,-4.1046,-4.1024,-4.1051,-4.1047,-4.1055,-4.1054,-4.1075,-4.1049,-4.1066,-4.1071,-4.1076,-4.1084,-4.0944,-4.1076,-4.1076,-4.1075,-4.1075,-4.1075,0,-4.1109,-4.1103,-4.112,-4.1127,-4.1142,-4.1106,-4.1108,-4.1123,-4.1147,-4.1146,-4.1159,-4.1183,-4.12,-4.1183,-4.1197,-4.1217,-4.1201,-4.1222,-4.122,-4.1219,-4.1106,-4.1094,-4.1234,-4.1234,-4.1234,-4.1234,-4.1234,-4.1234,-4.1186,-4.1229,-4.1213,-4.1255,-4.1248,-4.1273,-4.1278,-4.1281,-4.128,-4.1309,-4.1323,-4.1311,-4.1304,-4.1317,-4.1331,-4.1325,-4.1332,-4.1359,-4.1348,-4.1243,-4.1227,-4.1212,-4.1201,-4.1361,-4.1361,-4.1459,-4.146,-4.1461]}]]